Location: El Bakhil
(32.7726°N, 5.5387°W)
Time: 03:22:42
(UTC+00:00)

Lacrosse 4 Rocket - Pass Details

Date: 03 March 2021
Orbit: 537 x 620 km, 68.0° (Epoch: 12 April)

Event Time Altitude Azimuth Distance (km) Brightness Sun altitude
Rises 19:06:02 0° 173° (S) 2,784 4.9 -10.2°
Reaches altitude 10° 19:08:34 10° 159° (SSE) 1,905 3.9 -10.8°
Maximum altitude 19:11:58 23° 106° (ESE) 1,274 2.6 -11.5°
Enters shadow 19:14:34 14° 62° (ENE) 1,689 3.3 -12.0°
